This is the latest recevied weather packets stored in our database for station/object KF4LQQ-13. If no packets are shown the sender has not sent any weather packets the latest 10 day(s).
| Time | Temp. | Humidity | Pressure | Rain* | Wind** | Luminosity | Snow |
|---|---|---|---|---|---|---|---|
| 1777689547 | 25° C | - | 1009.5 hPa | 0 mm | - | - | - |
| 1777689042 | 25° C | - | 1009.6 hPa | 0 mm | - | - | - |
| 1777688442 | 25° C | - | 1009.5 hPa | 0 mm | - | - | - |
| 1777687891 | 25.56° C | - | 1009.6 hPa | 0 mm | - | - | - |
| 1777687842 | 25.56° C | - | 1009.6 hPa | 0 mm | - | - | - |
| 1777687242 | 25.56° C | - | 1009.6 hPa | 0 mm | - | - | - |
| 1777686641 | 25.56° C | - | 1009.5 hPa | 0 mm | - | - | - |
| 1777686041 | 25.56° C | - | 1009.4 hPa | 0 mm | - | - | - |
| 1777685441 | 25.56° C | - | 1009.3 hPa | 0 mm | - | - | - |
| 1777684840 | 25.56° C | - | 1009.1 hPa | 0 mm | - | - | - |
| 1777684240 | 25.56° C | - | 1009 hPa | 0 mm | - | - | - |
| 1777683640 | 26.11° C | - | 1008.9 hPa | 0 mm | - | - | - |
| 1777683040 | 26.11° C | - | 1008.8 hPa | 0 mm | - | - | - |
| 1777682439 | 25.56° C | - | 1008.7 hPa | 0 mm | - | - | - |
| 1777681839 | 25.56° C | - | 1008.6 hPa | 0 mm | - | - | - |
| 1777681239 | 25.56° C | - | 1008.5 hPa | 0 mm | - | - | - |
| 1777681047 | 26.11° C | - | 1008.3 hPa | 0 mm | - | - | - |
| 1777680639 | 26.11° C | - | 1008.5 hPa | 0 mm | - | - | - |
| 1777680206 | 26.11° C | - | 1008.3 hPa | 0 mm | - | - | - |
| 1777680038 | 26.11° C | - | 1008.3 hPa | 0 mm | - | - | - |
| 1777679440 | 26.67° C | - | 1008.3 hPa | 0 mm | - | - | - |
| 1777678837 | 26.67° C | - | 1008.2 hPa | 0 mm | - | - | - |
| 1777678237 | 26.67° C | - | 1008.1 hPa | 0 mm | - | - | - |
| 1777677636 | 27.22° C | - | 1008.1 hPa | 0 mm | - | - | - |
| 1777677036 | 27.78° C | - | 1008 hPa | 0 mm | - | - | - |
* Rain since midnight (hover to see other rain measurements)
** Current wind speed in m/s (hover to see current wind gust speed)